Location: Lane
(33.5226°N, 79.8788°W)
Time: 00:30:35
(UTC+00:00)

Altair - Visible Passes

Search period start: 01 December 2023 00:00
Search period end: 11 December 2023 00:00
Orbit: 1501 x 1682 km, 47.2° (Epoch: 29 November)

Date Brightness Start Highest point End Pass type
(mag) Time Alt. Az. Time Alt. Az. Time Alt. Az.
01 Dec 9.8 23:04:04 10° W 23:10:42 23° SW 23:17:24 10° S visible
02 Dec 9.8 22:38:33 10° WNW 22:45:37 25° SW 22:52:44 10° S visible
04 Dec 9.5 11:20:17 10° S 11:28:39 32° SE 11:36:46 10° ENE visible
05 Dec 9.5 10:55:27 10° S 11:03:31 29° SE 11:11:22 10° ENE visible
06 Dec 9.6 10:30:41 10° S 10:38:23 26° SE 10:45:53 10° ENE visible
07 Dec 9.6 10:05:59 10° S 10:13:16 23° SE 10:20:23 10° ENE visible
08 Dec 9.7 09:41:22 10° S 09:48:09 21° SE 09:54:47 10° E visible
08 Dec 7.9 11:42:01 10° SW 11:51:57 78° SE 12:01:31 10° NE visible
09 Dec 9.7 09:16:51 10° SSE 09:23:02 18° SE 09:29:06 10° E visible
09 Dec 7.9 11:16:50 10° SW 11:26:45 72° SE 11:36:18 10° ENE visible
10 Dec 9.8 08:52:29 10° SSE 08:57:55 16° ESE 09:03:17 10° E visible
10 Dec 8.0 10:51:41 10° SW 11:01:33 67° SE 11:11:05 10° ENE visible
